Time,TemperatureF,DewpointF,PressureIn,WindDirection,WindDirectionDegrees,WindSpeedMPH,WindSpeedGustMPH,Humidity,HourlyPrecipIn,Conditions,Clouds,dailyrainin,SoftwareType,DateUTC
2013-11-14 00:01:00,32.5,12.6,29.72,SSE,158,6.0,8.0,43,0.00,,,0.00,meteohub,2013-11-14 06:01:00,
2013-11-14 00:06:00,32.4,12.4,29.72,South,180,4.0,8.0,43,0.00,,,0.00,meteohub,2013-11-14 06:06:00,
2013-11-14 00:11:00,32.4,12.4,29.72,SSW,202,6.0,6.0,43,0.00,,,0.00,meteohub,2013-11-14 06:11:00,
2013-11-14 00:16:00,32.4,12.4,29.72,South,180,7.0,7.0,43,0.00,,,0.00,meteohub,2013-11-14 06:16:00,
2013-11-14 00:21:00,32.4,12.4,29.72,SW,225,3.0,7.0,43,0.00,,,0.00,meteohub,2013-11-14 06:21:00,
2013-11-14 00:26:00,32.4,12.4,29.72,SW,225,3.0,7.0,43,0.00,,,0.00,meteohub,2013-11-14 06:26:00,
2013-11-14 00:31:00,32.2,12.2,29.72,South,180,7.0,7.0,43,0.00,,,0.00,meteohub,2013-11-14 06:31:00,
2013-11-14 00:36:00,32.2,12.2,29.72,South,180,6.0,7.0,43,0.00,,,0.00,meteohub,2013-11-14 06:36:00,
2013-11-14 00:41:00,32.2,12.2,29.72,South,180,5.0,7.0,43,0.00,,,0.00,meteohub,2013-11-14 06:41:00,
2013-11-14 00:47:00,32.0,12.0,29.72,SSW,202,5.0,8.0,43,0.00,,,0.00,meteohub,2013-11-14 06:47:00,
2013-11-14 00:52:00,32.0,12.6,29.72,SSE,158,5.0,8.0,44,0.00,,,0.00,meteohub,2013-11-14 06:52:00,
2013-11-14 00:57:00,32.0,12.6,29.72,SSW,202,3.0,8.0,44,0.00,,,0.00,meteohub,2013-11-14 06:57:00,
2013-11-14 01:02:00,32.0,12.6,29.72,SSW,202,5.0,9.0,44,0.00,,,0.00,meteohub,2013-11-14 07:02:00,
2013-11-14 01:07:00,31.8,12.4,29.72,South,180,4.0,9.0,44,0.00,,,0.00,meteohub,2013-11-14 07:07:00,
2013-11-14 01:12:00,31.8,12.4,29.72,South,180,4.0,9.0,44,0.00,,,0.00,meteohub,2013-11-14 07:12:00,
2013-11-14 01:17:00,31.6,12.2,29.72,South,180,4.0,8.0,44,0.00,,,0.00,meteohub,2013-11-14 07:17:00,
2013-11-14 01:22:00,31.6,12.2,29.72,South,180,5.0,8.0,44,0.00,,,0.00,meteohub,2013-11-14 07:22:00,
2013-11-14 01:27:00,31.5,12.0,29.72,SSE,158,2.0,8.0,44,0.00,,,0.00,meteohub,2013-11-14 07:27:00,
2013-11-14 01:32:00,31.6,12.7,29.72,South,180,4.0,9.0,45,0.00,,,0.00,meteohub,2013-11-14 07:32:00,
2013-11-14 01:37:00,31.6,12.7,29.72,SSW,202,8.0,9.0,45,0.00,,,0.00,meteohub,2013-11-14 07:37:00,
2013-11-14 01:42:00,31.6,12.7,29.72,SSW,202,3.0,9.0,45,0.00,,,0.00,meteohub,2013-11-14 07:42:00,
2013-11-14 01:47:00,31.6,12.7,29.69,SSW,202,8.0,10.0,45,0.00,,,0.00,meteohub,2013-11-14 07:47:00,
2013-11-14 01:52:00,31.6,12.7,29.69,SSE,158,4.0,10.0,45,0.00,,,0.00,meteohub,2013-11-14 07:52:00,
2013-11-14 01:57:00,31.6,12.7,29.69,SSW,202,6.0,8.0,45,0.00,,,0.00,meteohub,2013-11-14 07:57:00,
2013-11-14 02:02:00,31.6,13.3,29.69,South,180,5.0,9.0,46,0.00,,,0.00,meteohub,2013-11-14 08:02:00,
2013-11-14 02:07:00,31.6,13.3,29.69,SW,225,6.0,9.0,46,0.00,,,0.00,meteohub,2013-11-14 08:07:00,
2013-11-14 02:12:00,31.6,13.3,29.69,South,180,6.0,8.0,46,0.00,,,0.00,meteohub,2013-11-14 08:12:00,
2013-11-14 02:17:00,31.6,13.3,29.69,WSW,248,3.0,8.0,46,0.00,,,0.00,meteohub,2013-11-14 08:17:00,
2013-11-14 02:22:00,31.8,13.5,29.69,SSW,202,3.0,8.0,46,0.00,,,0.00,meteohub,2013-11-14 08:22:00,
2013-11-14 02:27:00,32.0,13.6,29.69,South,180,4.0,8.0,46,0.00,,,0.00,meteohub,2013-11-14 08:27:00,
2013-11-14 02:32:00,32.0,13.6,29.69,South,180,6.0,10.0,46,0.00,,,0.00,meteohub,2013-11-14 08:32:00,
2013-11-14 02:37:00,32.2,13.8,29.69,South,180,4.0,10.0,46,0.00,,,0.00,meteohub,2013-11-14 08:37:00,
2013-11-14 02:42:00,32.2,13.8,29.69,SSW,202,3.0,10.0,46,0.00,,,0.00,meteohub,2013-11-14 08:42:00,
2013-11-14 02:47:00,32.5,14.2,29.66,SSW,202,4.0,10.0,46,0.00,,,0.00,meteohub,2013-11-14 08:47:00,
2013-11-14 02:52:00,32.5,14.2,29.66,WSW,248,5.0,10.0,46,0.00,,,0.00,meteohub,2013-11-14 08:52:00,
2013-11-14 02:57:00,32.5,14.2,29.66,SW,225,6.0,10.0,46,0.00,,,0.00,meteohub,2013-11-14 08:57:00,
2013-11-14 03:02:00,32.5,14.2,29.69,SW,225,6.0,11.0,46,0.00,,,0.00,meteohub,2013-11-14 09:02:00,
2013-11-14 03:07:00,32.4,14.0,29.69,SW,225,6.0,11.0,46,0.00,,,0.00,meteohub,2013-11-14 09:07:00,
2013-11-14 03:12:00,32.4,14.0,29.69,SW,225,2.0,11.0,46,0.00,,,0.00,meteohub,2013-11-14 09:12:00,
2013-11-14 03:17:00,32.4,14.0,29.69,SSW,202,6.0,9.0,46,0.00,,,0.00,meteohub,2013-11-14 09:17:00,
2013-11-14 03:22:00,32.4,14.0,29.69,SSW,202,5.0,15.0,46,0.00,,,0.00,meteohub,2013-11-14 09:22:00,
2013-11-14 03:27:00,32.2,13.8,29.69,SSE,158,4.0,15.0,46,0.00,,,0.00,meteohub,2013-11-14 09:27:00,
2013-11-14 03:33:00,32.2,13.8,29.69,SE,135,4.0,15.0,46,0.00,,,0.00,meteohub,2013-11-14 09:33:00,
2013-11-14 03:38:00,32.0,13.1,29.69,WSW,248,4.0,10.0,45,0.00,,,0.00,meteohub,2013-11-14 09:38:00,
2013-11-14 03:43:00,32.0,13.6,29.69,SSE,158,4.0,10.0,46,0.00,,,0.00,meteohub,2013-11-14 09:43:00,
2013-11-14 03:48:00,31.8,13.5,29.69,SSW,202,4.0,8.0,46,0.00,,,0.00,meteohub,2013-11-14 09:48:00,
2013-11-14 03:53:00,31.8,13.5,29.69,SSE,158,6.0,8.0,46,0.00,,,0.00,meteohub,2013-11-14 09:53:00,
2013-11-14 03:58:00,32.0,13.6,29.69,South,180,5.0,8.0,46,0.00,,,0.00,meteohub,2013-11-14 09:58:00,
2013-11-14 04:03:00,32.0,13.6,29.69,SSW,202,6.0,9.0,46,0.00,,,0.00,meteohub,2013-11-14 10:03:00,
2013-11-14 04:08:00,31.8,13.5,29.69,South,180,4.0,9.0,46,0.00,,,0.00,meteohub,2013-11-14 10:08:00,
2013-11-14 04:13:00,31.8,13.5,29.69,SSE,158,3.0,9.0,46,0.00,,,0.00,meteohub,2013-11-14 10:13:00,
2013-11-14 04:18:00,31.6,13.3,29.69,SSE,158,5.0,12.0,46,0.00,,,0.00,meteohub,2013-11-14 10:18:00,
2013-11-14 04:23:00,31.6,13.3,29.69,SSE,158,6.0,12.0,46,0.00,,,0.00,meteohub,2013-11-14 10:23:00,
2013-11-14 04:28:00,31.6,13.3,29.69,SSW,202,4.0,8.0,46,0.00,,,0.00,meteohub,2013-11-14 10:28:00,
2013-11-14 04:34:00,31.5,13.1,29.69,SW,225,3.0,8.0,46,0.00,,,0.00,meteohub,2013-11-14 10:34:00,
2013-11-14 04:39:00,31.6,13.3,29.69,SSW,202,4.0,8.0,46,0.00,,,0.00,meteohub,2013-11-14 10:39:00,
2013-11-14 04:44:00,31.6,13.8,29.69,WSW,248,3.0,10.0,47,0.00,,,0.00,meteohub,2013-11-14 10:44:00,
2013-11-14 04:49:00,31.8,13.5,29.69,South,180,5.0,10.0,46,0.00,,,0.00,meteohub,2013-11-14 10:49:00,
2013-11-14 04:54:00,31.8,14.0,29.69,South,180,6.0,10.0,47,0.00,,,0.00,meteohub,2013-11-14 10:54:00,
2013-11-14 04:59:00,31.8,14.0,29.69,South,180,4.0,8.0,47,0.00,,,0.00,meteohub,2013-11-14 10:59:00,
2013-11-14 05:04:00,31.8,14.0,29.69,SSW,202,6.0,8.0,47,0.00,,,0.00,meteohub,2013-11-14 11:04:00,
2013-11-14 05:09:00,31.8,13.5,29.69,South,180,3.0,8.0,46,0.00,,,0.00,meteohub,2013-11-14 11:09:00,
2013-11-14 05:14:00,31.6,13.8,29.69,South,180,4.0,10.0,47,0.00,,,0.00,meteohub,2013-11-14 11:14:00,
2013-11-14 05:19:00,31.6,13.8,29.69,South,180,3.0,10.0,47,0.00,,,0.00,meteohub,2013-11-14 11:19:00,
2013-11-14 05:24:00,31.6,13.8,29.69,South,180,3.0,7.0,47,0.00,,,0.00,meteohub,2013-11-14 11:24:00,
2013-11-14 05:29:00,31.5,13.6,29.69,SSW,202,4.0,9.0,47,0.00,,,0.00,meteohub,2013-11-14 11:29:00,
2013-11-14 05:34:00,31.3,12.9,29.69,SSW,202,3.0,9.0,46,0.00,,,0.00,meteohub,2013-11-14 11:34:00,
2013-11-14 05:39:00,31.3,13.5,29.69,South,180,3.0,7.0,47,0.00,,,0.00,meteohub,2013-11-14 11:39:00,
2013-11-14 05:45:00,31.1,13.3,29.69,SSW,202,4.0,7.0,47,0.00,,,0.00,meteohub,2013-11-14 11:45:00,
2013-11-14 05:50:00,31.1,13.3,29.69,South,180,5.0,7.0,47,0.00,,,0.00,meteohub,2013-11-14 11:50:00,
2013-11-14 05:55:00,31.1,13.3,29.69,SSW,202,2.0,6.0,47,0.00,,,0.00,meteohub,2013-11-14 11:55:00,
2013-11-14 06:00:00,31.1,13.3,29.69,South,180,6.0,6.0,47,0.00,,,0.00,meteohub,2013-11-14 12:00:00,
2013-11-14 06:05:00,31.1,13.3,29.66,SSW,202,2.0,6.0,47,0.00,,,0.00,meteohub,2013-11-14 12:05:00,
2013-11-14 06:10:00,30.9,13.1,29.66,South,180,2.0,6.0,47,0.00,,,0.00,meteohub,2013-11-14 12:10:00,
2013-11-14 06:15:00,30.9,13.1,29.66,SSW,202,4.0,5.0,47,0.00,,,0.00,meteohub,2013-11-14 12:15:00,
2013-11-14 06:20:00,30.6,12.7,29.66,SW,225,2.0,4.0,47,0.00,,,0.00,meteohub,2013-11-14 12:20:00,
2013-11-14 06:25:00,30.4,12.6,29.66,SSW,202,0.0,4.0,47,0.00,,,0.00,meteohub,2013-11-14 12:25:00,
2013-11-14 06:30:00,30.2,12.9,29.66,SSW,202,0.0,4.0,48,0.00,,,0.00,meteohub,2013-11-14 12:30:00,
2013-11-14 06:35:00,30.2,12.9,29.66,SW,225,2.0,4.0,48,0.00,,,0.00,meteohub,2013-11-14 12:35:00,
2013-11-14 06:40:00,30.0,12.7,29.66,WSW,248,0.0,4.0,48,0.00,,,0.00,meteohub,2013-11-14 12:40:00,
2013-11-14 06:45:00,29.8,12.6,29.69,SSW,202,0.0,3.0,48,0.00,,,0.00,meteohub,2013-11-14 12:45:00,
2013-11-14 06:50:00,29.7,12.4,29.69,SW,225,0.0,3.0,48,0.00,,,0.00,meteohub,2013-11-14 12:50:00,
2013-11-14 06:56:00,29.7,12.4,29.69,SW,225,1.0,3.0,48,0.00,,,0.00,meteohub,2013-11-14 12:56:00,
2013-11-14 07:01:00,29.7,12.9,29.69,SSW,202,2.0,2.0,49,0.00,,,0.00,meteohub,2013-11-14 13:01:00,
2013-11-14 07:06:00,29.8,13.1,29.69,SSW,202,2.0,4.0,49,0.00,,,0.00,meteohub,2013-11-14 13:06:00,
2013-11-14 07:11:00,30.2,13.3,29.69,South,180,3.0,4.0,49,0.00,,,0.00,meteohub,2013-11-14 13:11:00,
2013-11-14 07:16:00,30.7,13.8,29.69,SSW,202,3.0,4.0,49,0.00,,,0.00,meteohub,2013-11-14 13:16:00,
2013-11-14 07:21:00,31.3,14.4,29.69,WSW,248,3.0,4.0,49,0.00,,,0.00,meteohub,2013-11-14 13:21:00,
2013-11-14 07:26:00,32.2,15.6,29.69,SSW,202,4.0,6.0,50,0.00,,,0.00,meteohub,2013-11-14 13:26:00,
2013-11-14 07:31:00,32.7,16.2,29.69,South,180,4.0,6.0,50,0.00,,,0.00,meteohub,2013-11-14 13:31:00,
2013-11-14 07:36:00,33.3,16.2,29.69,SW,225,4.0,7.0,49,0.00,,,0.00,meteohub,2013-11-14 13:36:00,
2013-11-14 07:41:00,33.4,16.3,29.69,South,180,6.0,8.0,49,0.00,,,0.00,meteohub,2013-11-14 13:41:00,
2013-11-14 07:46:00,33.8,16.2,29.69,South,180,4.0,8.0,48,0.00,,,0.00,meteohub,2013-11-14 13:46:00,
2013-11-14 07:51:00,34.3,16.7,29.69,South,180,8.0,8.0,48,0.00,,,0.00,meteohub,2013-11-14 13:51:00,
2013-11-14 07:56:00,34.7,16.5,29.69,South,180,5.0,8.0,47,0.00,,,0.00,meteohub,2013-11-14 13:56:00,
2013-11-14 08:01:00,35.2,16.5,29.69,SSW,202,9.0,9.0,46,0.00,,,0.00,meteohub,2013-11-14 14:01:00,
2013-11-14 08:07:00,35.8,17.1,29.69,South,180,9.0,10.0,46,0.00,,,0.00,meteohub,2013-11-14 14:07:00,
2013-11-14 08:12:00,36.3,17.1,29.69,SSE,158,9.0,10.0,45,0.00,,,0.00,meteohub,2013-11-14 14:12:00,
2013-11-14 08:17:00,36.9,17.1,29.69,South,180,5.0,10.0,44,0.00,,,0.00,meteohub,2013-11-14 14:17:00,
2013-11-14 08:22:00,37.4,17.1,29.69,SW,225,7.0,10.0,43,0.00,,,0.00,meteohub,2013-11-14 14:22:00,
2013-11-14 08:27:00,37.9,17.4,29.69,SW,225,7.0,9.0,43,0.00,,,0.00,meteohub,2013-11-14 14:27:00,
2013-11-14 08:32:00,38.5,18.0,29.69,SSW,202,6.0,9.0,43,0.00,,,0.00,meteohub,2013-11-14 14:32:00,
2013-11-14 08:37:00,38.7,17.6,29.69,SSW,202,4.0,8.0,42,0.00,,,0.00,meteohub,2013-11-14 14:37:00,
2013-11-14 08:42:00,39.2,17.6,29.69,SW,225,4.0,13.0,41,0.00,,,0.00,meteohub,2013-11-14 14:42:00,
2013-11-14 08:47:00,39.6,17.8,29.69,South,180,6.0,13.0,41,0.00,,,0.00,meteohub,2013-11-14 14:47:00,
2013-11-14 08:48:00,39.7,18.0,29.69,South,180,9.0,13.0,41,0.00,,,0.00,meteohub,2013-11-14 14:48:00,
2013-11-14 08:53:00,40.3,18.0,29.69,SW,225,4.0,13.0,40,0.00,,,0.00,meteohub,2013-11-14 14:53:00,
2013-11-14 08:58:00,40.6,17.6,29.69,SSW,202,7.0,12.0,39,0.00,,,0.00,meteohub,2013-11-14 14:58:00,
2013-11-14 09:03:00,41.0,18.0,29.69,SSW,202,11.0,12.0,39,0.00,,,0.00,meteohub,2013-11-14 15:03:00,
2013-11-14 09:08:00,41.2,18.1,29.69,South,180,8.0,13.0,39,0.00,,,0.00,meteohub,2013-11-14 15:08:00,
2013-11-14 09:13:00,41.5,18.0,29.69,WSW,248,8.0,13.0,38,0.00,,,0.00,meteohub,2013-11-14 15:13:00,
2013-11-14 09:18:00,41.7,18.0,29.69,SSW,202,8.0,14.0,38,0.00,,,0.00,meteohub,2013-11-14 15:18:00,
2013-11-14 09:23:00,42.3,18.5,29.69,WSW,248,11.0,14.0,38,0.00,,,0.00,meteohub,2013-11-14 15:23:00,
2013-11-14 09:28:00,42.4,18.1,29.69,SSW,202,6.0,15.0,37,0.00,,,0.00,meteohub,2013-11-14 15:28:00,
2013-11-14 09:33:00,42.8,17.8,29.69,South,180,4.0,15.0,36,0.00,,,0.00,meteohub,2013-11-14 15:33:00,
2013-11-14 09:38:00,43.0,18.0,29.69,SW,225,3.0,15.0,36,0.00,,,0.00,meteohub,2013-11-14 15:38:00,
2013-11-14 09:43:00,43.3,17.6,29.69,South,180,7.0,13.0,35,0.00,,,0.00,meteohub,2013-11-14 15:43:00,
2013-11-14 09:48:00,43.7,17.2,29.66,SSW,202,13.0,13.0,34,0.00,,,0.00,meteohub,2013-11-14 15:48:00,
2013-11-14 09:54:00,44.1,17.6,29.66,South,180,5.0,18.0,34,0.00,,,0.00,meteohub,2013-11-14 15:54:00,
2013-11-14 09:59:00,44.2,17.1,29.66,SW,225,10.0,18.0,33,0.00,,,0.00,meteohub,2013-11-14 15:59:00,
2013-11-14 10:04:00,44.6,16.7,29.66,SSW,202,13.0,18.0,32,0.00,,,0.00,meteohub,2013-11-14 16:04:00,
2013-11-14 10:09:00,45.0,17.6,29.66,SSW,202,3.0,15.0,33,0.00,,,0.00,meteohub,2013-11-14 16:09:00,
2013-11-14 10:14:00,45.7,17.6,29.66,SW,225,7.0,15.0,32,0.00,,,0.00,meteohub,2013-11-14 16:14:00,
2013-11-14 10:19:00,46.0,18.0,29.66,SSW,202,14.0,15.0,32,0.00,,,0.00,meteohub,2013-11-14 16:19:00,
2013-11-14 10:24:00,46.2,18.1,29.66,WSW,248,6.0,14.0,32,0.00,,,0.00,meteohub,2013-11-14 16:24:00,
2013-11-14 10:29:00,46.8,17.8,29.66,SSW,202,11.0,14.0,31,0.00,,,0.00,meteohub,2013-11-14 16:29:00,
2013-11-14 10:34:00,47.3,18.3,29.63,WSW,248,8.0,14.0,31,0.00,,,0.00,meteohub,2013-11-14 16:34:00,
2013-11-14 10:39:00,48.0,18.9,29.63,South,180,11.0,16.0,31,0.00,,,0.00,meteohub,2013-11-14 16:39:00,
2013-11-14 10:44:00,48.4,18.5,29.63,SSW,202,8.0,16.0,30,0.00,,,0.00,meteohub,2013-11-14 16:44:00,
2013-11-14 10:49:00,48.7,18.0,29.63,WSW,248,6.0,16.0,29,0.00,,,0.00,meteohub,2013-11-14 16:49:00,
2013-11-14 10:54:00,48.9,18.1,29.63,South,180,6.0,13.0,29,0.00,,,0.00,meteohub,2013-11-14 16:54:00,
2013-11-14 11:00:00,49.3,18.5,29.63,SSW,202,9.0,13.0,29,0.00,,,0.00,meteohub,2013-11-14 17:00:00,
2013-11-14 11:05:00,49.8,18.9,29.63,WSW,248,11.0,15.0,29,0.00,,,0.00,meteohub,2013-11-14 17:05:00,
2013-11-14 11:10:00,50.2,18.3,29.63,SSW,202,8.0,15.0,28,0.00,,,0.00,meteohub,2013-11-14 17:10:00,
2013-11-14 11:15:00,50.2,18.3,29.63,SW,225,9.0,15.0,28,0.00,,,0.00,meteohub,2013-11-14 17:15:00,
2013-11-14 11:20:00,50.4,18.5,29.63,SSW,202,13.0,19.0,28,0.00,,,0.00,meteohub,2013-11-14 17:20:00,
2013-11-14 11:25:00,50.4,17.8,29.63,South,180,15.0,19.0,27,0.00,,,0.00,meteohub,2013-11-14 17:25:00,
2013-11-14 11:30:00,50.9,19.0,29.63,SSW,202,12.0,15.0,28,0.00,,,0.00,meteohub,2013-11-14 17:30:00,
2013-11-14 11:35:00,51.4,18.7,29.63,South,180,11.0,15.0,27,0.00,,,0.00,meteohub,2013-11-14 17:35:00,
2013-11-14 11:40:00,51.8,18.9,29.63,SSE,158,10.0,15.0,27,0.00,,,0.00,meteohub,2013-11-14 17:40:00,
2013-11-14 11:45:00,52.3,19.4,29.60,South,180,4.0,15.0,27,0.00,,,0.00,meteohub,2013-11-14 17:45:00,
2013-11-14 11:50:00,52.9,19.9,29.60,SW,225,10.0,15.0,27,0.00,,,0.00,meteohub,2013-11-14 17:50:00,
2013-11-14 11:55:00,53.4,20.3,29.60,SSW,202,7.0,15.0,27,0.00,,,0.00,meteohub,2013-11-14 17:55:00,
2013-11-14 12:00:00,53.8,19.8,29.60,SSW,202,6.0,15.0,26,0.00,,,0.00,meteohub,2013-11-14 18:00:00,
2013-11-14 12:06:00,54.5,20.3,29.60,WSW,248,8.0,13.0,26,0.00,,,0.00,meteohub,2013-11-14 18:06:00,
2013-11-14 12:11:00,54.9,20.7,29.60,South,180,13.0,13.0,26,0.00,,,0.00,meteohub,2013-11-14 18:11:00,
2013-11-14 12:16:00,54.7,20.5,29.57,South,180,13.0,16.0,26,0.00,,,0.00,meteohub,2013-11-14 18:16:00,
2013-11-14 12:21:00,55.4,21.2,29.57,SSW,202,8.0,16.0,26,0.00,,,0.00,meteohub,2013-11-14 18:21:00,
2013-11-14 12:26:00,55.6,20.3,29.57,South,180,13.0,16.0,25,0.00,,,0.00,meteohub,2013-11-14 18:26:00,
2013-11-14 12:31:00,55.6,20.3,29.57,WSW,248,11.0,17.0,25,0.00,,,0.00,meteohub,2013-11-14 18:31:00,
2013-11-14 12:36:00,55.8,20.5,29.57,SW,225,10.0,17.0,25,0.00,,,0.00,meteohub,2013-11-14 18:36:00,
2013-11-14 12:41:00,56.1,20.8,29.57,SSW,202,5.0,17.0,25,0.00,,,0.00,meteohub,2013-11-14 18:41:00,
2013-11-14 12:46:00,56.5,21.2,29.57,SSW,202,5.0,15.0,25,0.00,,,0.00,meteohub,2013-11-14 18:46:00,
2013-11-14 12:51:00,56.5,21.2,29.57,SSW,202,8.0,15.0,25,0.00,,,0.00,meteohub,2013-11-14 18:51:00,
2013-11-14 12:56:00,56.3,21.0,29.57,South,180,10.0,15.0,25,0.00,,,0.00,meteohub,2013-11-14 18:56:00,
2013-11-14 13:01:00,56.7,21.4,29.57,SSW,202,11.0,15.0,25,0.00,,,0.00,meteohub,2013-11-14 19:01:00,
2013-11-14 13:06:00,56.7,21.4,29.57,SSW,202,11.0,15.0,25,0.00,,,0.00,meteohub,2013-11-14 19:06:00,
2013-11-14 13:11:00,56.5,21.2,29.57,SSW,202,8.0,16.0,25,0.00,,,0.00,meteohub,2013-11-14 19:11:00,
2013-11-14 13:17:00,56.1,20.8,29.54,SW,225,10.0,17.0,25,0.00,,,0.00,meteohub,2013-11-14 19:17:00,
2013-11-14 13:22:00,55.9,20.7,29.54,South,180,10.0,17.0,25,0.00,,,0.00,meteohub,2013-11-14 19:22:00,
2013-11-14 13:27:00,56.7,21.4,29.54,South,180,10.0,16.0,25,0.00,,,0.00,meteohub,2013-11-14 19:27:00,
2013-11-14 13:32:00,57.0,21.6,29.54,South,180,11.0,13.0,25,0.00,,,0.00,meteohub,2013-11-14 19:32:00,
2013-11-14 13:37:00,56.8,21.4,29.54,SSE,158,6.0,13.0,25,0.00,,,0.00,meteohub,2013-11-14 19:37:00,
2013-11-14 13:42:00,56.7,21.4,29.54,SSW,202,8.0,19.0,25,0.00,,,0.00,meteohub,2013-11-14 19:42:00,
2013-11-14 13:47:00,56.3,21.0,29.51,South,180,8.0,19.0,25,0.00,,,0.00,meteohub,2013-11-14 19:47:00,
2013-11-14 13:52:00,56.1,20.8,29.51,West,270,11.0,19.0,25,0.00,,,0.00,meteohub,2013-11-14 19:52:00,
2013-11-14 13:57:00,56.1,20.8,29.51,WSW,248,5.0,18.0,25,0.00,,,0.00,meteohub,2013-11-14 19:57:00,
2013-11-14 14:02:00,55.9,17.8,29.51,SSE,158,5.0,15.0,22,0.00,,,0.00,meteohub,2013-11-14 20:02:00,
2013-11-14 14:07:00,55.9,17.8,29.51,South,180,9.0,15.0,22,0.00,,,0.00,meteohub,2013-11-14 20:07:00,
2013-11-14 14:12:00,55.9,17.8,29.51,South,180,7.0,15.0,22,0.00,,,0.00,meteohub,2013-11-14 20:12:00,
2013-11-14 14:17:00,56.5,18.1,29.48,South,180,4.0,20.0,22,0.00,,,0.00,meteohub,2013-11-14 20:17:00,
2013-11-14 14:22:00,56.8,21.4,29.48,South,180,6.0,20.0,25,0.00,,,0.00,meteohub,2013-11-14 20:22:00,
2013-11-14 14:27:00,56.7,21.4,29.48,South,180,4.0,17.0,25,0.00,,,0.00,meteohub,2013-11-14 20:27:00,
2013-11-14 14:32:00,56.3,21.0,29.51,SSW,202,8.0,15.0,25,0.00,,,0.00,meteohub,2013-11-14 20:32:00,
2013-11-14 14:37:00,55.6,20.3,29.51,SSW,202,6.0,15.0,25,0.00,,,0.00,meteohub,2013-11-14 20:37:00,
2013-11-14 14:42:00,55.0,19.9,29.51,SW,225,8.0,15.0,25,0.00,,,0.00,meteohub,2013-11-14 20:42:00,
2013-11-14 14:47:00,54.5,19.4,29.48,SSE,158,4.0,15.0,25,0.00,,,0.00,meteohub,2013-11-14 20:47:00,
2013-11-14 14:52:00,54.0,19.0,29.48,SSW,202,9.0,14.0,25,0.00,,,0.00,meteohub,2013-11-14 20:52:00,
2013-11-14 14:57:00,54.0,19.0,29.48,SSW,202,4.0,19.0,25,0.00,,,0.00,meteohub,2013-11-14 20:57:00,
2013-11-14 15:02:00,54.5,19.4,29.48,South,180,10.0,19.0,25,0.00,,,0.00,meteohub,2013-11-14 21:02:00,
2013-11-14 15:07:00,54.9,19.8,29.48,SSW,202,10.0,19.0,25,0.00,,,0.00,meteohub,2013-11-14 21:07:00,
2013-11-14 15:12:00,54.5,19.4,29.48,South,180,13.0,15.0,25,0.00,,,0.00,meteohub,2013-11-14 21:12:00,
2013-11-14 15:17:00,54.1,19.2,29.51,SSW,202,11.0,19.0,25,0.00,,,0.00,meteohub,2013-11-14 21:17:00,
2013-11-14 15:22:00,54.1,19.2,29.51,SSW,202,4.0,19.0,25,0.00,,,0.00,meteohub,2013-11-14 21:22:00,
2013-11-14 15:27:00,53.8,18.9,29.51,SW,225,5.0,19.0,25,0.00,,,0.00,meteohub,2013-11-14 21:27:00,
2013-11-14 15:32:00,53.4,19.4,29.51,South,180,8.0,15.0,26,0.00,,,0.00,meteohub,2013-11-14 21:32:00,
2013-11-14 15:37:00,53.2,19.2,29.51,SW,225,12.0,15.0,26,0.00,,,0.00,meteohub,2013-11-14 21:37:00,
2013-11-14 15:42:00,52.9,19.0,29.51,South,180,9.0,15.0,26,0.00,,,0.00,meteohub,2013-11-14 21:42:00,
2013-11-14 15:47:00,52.5,18.7,29.51,South,180,10.0,12.0,26,0.00,,,0.00,meteohub,2013-11-14 21:47:00,
2013-11-14 15:52:00,52.3,18.5,29.51,SSW,202,6.0,13.0,26,0.00,,,0.00,meteohub,2013-11-14 21:52:00,
2013-11-14 15:57:00,52.0,18.1,29.51,SSW,202,8.0,13.0,26,0.00,,,0.00,meteohub,2013-11-14 21:57:00,
2013-11-14 16:02:00,51.6,18.0,29.51,South,180,11.0,13.0,26,0.00,,,0.00,meteohub,2013-11-14 22:02:00,
2013-11-14 16:07:00,51.4,17.8,29.51,SSW,202,8.0,13.0,26,0.00,,,0.00,meteohub,2013-11-14 22:07:00,
2013-11-14 16:12:00,51.1,17.4,29.51,SSW,202,6.0,13.0,26,0.00,,,0.00,meteohub,2013-11-14 22:12:00,
2013-11-14 16:17:00,50.7,17.2,29.51,SSE,158,6.0,13.0,26,0.00,,,0.00,meteohub,2013-11-14 22:17:00,
2013-11-14 16:22:00,50.4,16.9,29.51,SSE,158,5.0,12.0,26,0.00,,,0.00,meteohub,2013-11-14 22:22:00,
2013-11-14 16:27:00,50.2,16.7,29.51,SW,225,6.0,12.0,26,0.00,,,0.00,meteohub,2013-11-14 22:27:00,
2013-11-14 16:32:00,49.8,16.3,29.51,SSW,202,7.0,11.0,26,0.00,,,0.00,meteohub,2013-11-14 22:32:00,
2013-11-14 16:37:00,49.5,16.2,29.51,South,180,3.0,10.0,26,0.00,,,0.00,meteohub,2013-11-14 22:37:00,
2013-11-14 16:42:00,48.9,15.6,29.51,South,180,4.0,9.0,26,0.00,,,0.00,meteohub,2013-11-14 22:42:00,
2013-11-14 16:47:00,48.6,15.3,29.51,South,180,3.0,7.0,26,0.00,,,0.00,meteohub,2013-11-14 22:47:00,
2013-11-14 16:52:00,48.2,15.1,29.51,SSE,158,1.0,6.0,26,0.00,,,0.00,meteohub,2013-11-14 22:52:00,
2013-11-14 16:57:00,47.8,15.6,29.51,SW,225,3.0,5.0,27,0.00,,,0.00,meteohub,2013-11-14 22:57:00,
2013-11-14 17:02:00,47.7,15.4,29.51,South,180,1.0,6.0,27,0.00,,,0.00,meteohub,2013-11-14 23:02:00,
2013-11-14 17:07:00,47.5,15.3,29.51,SSW,202,2.0,6.0,27,0.00,,,0.00,meteohub,2013-11-14 23:07:00,
2013-11-14 17:12:00,47.3,15.1,29.51,South,180,1.0,6.0,27,0.00,,,0.00,meteohub,2013-11-14 23:12:00,
2013-11-14 17:17:00,47.1,14.9,29.51,South,180,2.0,7.0,27,0.00,,,0.00,meteohub,2013-11-14 23:17:00,
2013-11-14 17:22:00,46.9,14.7,29.51,SW,225,1.0,7.0,27,0.00,,,0.00,meteohub,2013-11-14 23:22:00,
2013-11-14 17:27:00,46.8,14.5,29.51,South,180,2.0,7.0,27,0.00,,,0.00,meteohub,2013-11-14 23:27:00,
2013-11-14 17:32:00,46.8,15.4,29.48,South,180,4.0,10.0,28,0.00,,,0.00,meteohub,2013-11-14 23:32:00,
2013-11-14 17:37:00,46.6,15.3,29.48,SSW,202,3.0,10.0,28,0.00,,,0.00,meteohub,2013-11-14 23:37:00,
2013-11-14 17:42:00,46.8,15.4,29.48,SSW,202,5.0,10.0,28,0.00,,,0.00,meteohub,2013-11-14 23:42:00,
2013-11-14 17:47:00,46.6,15.3,29.48,SE,135,6.0,8.0,28,0.00,,,0.00,meteohub,2013-11-14 23:47:00,
2013-11-14 17:52:00,46.8,15.4,29.48,South,180,10.0,10.0,28,0.00,,,0.00,meteohub,2013-11-14 23:52:00,
2013-11-14 17:57:00,46.8,15.4,29.48,South,180,5.0,12.0,28,0.00,,,0.00,meteohub,2013-11-14 23:57:00,
2013-11-14 18:02:00,46.6,15.3,29.51,South,180,6.0,12.0,28,0.00,,,0.00,meteohub,2013-11-15 00:02:00,
2013-11-14 18:07:00,46.4,15.1,29.51,South,180,4.0,10.0,28,0.00,,,0.00,meteohub,2013-11-15 00:07:00,
2013-11-14 18:12:00,46.4,15.1,29.51,SSW,202,2.0,10.0,28,0.00,,,0.00,meteohub,2013-11-15 00:12:00,
2013-11-14 18:17:00,46.4,15.1,29.48,South,180,2.0,10.0,28,0.00,,,0.00,meteohub,2013-11-15 00:17:00,
2013-11-14 18:22:00,46.6,15.3,29.48,WSW,248,4.0,10.0,28,0.00,,,0.00,meteohub,2013-11-15 00:22:00,
2013-11-14 18:27:00,46.6,15.3,29.48,SSE,158,9.0,10.0,28,0.00,,,0.00,meteohub,2013-11-15 00:27:00,
2013-11-14 18:32:00,46.8,16.3,29.48,South,180,4.0,10.0,29,0.00,,,0.00,meteohub,2013-11-15 00:32:00,
2013-11-14 18:37:00,46.6,16.2,29.48,SSW,202,6.0,14.0,29,0.00,,,0.00,meteohub,2013-11-15 00:37:00,
2013-11-14 18:42:00,46.6,16.2,29.48,South,180,6.0,14.0,29,0.00,,,0.00,meteohub,2013-11-15 00:42:00,
2013-11-14 18:47:00,46.6,16.2,29.48,South,180,8.0,13.0,29,0.00,,,0.00,meteohub,2013-11-15 00:47:00,
2013-11-14 18:52:00,46.6,16.2,29.48,SSW,202,4.0,13.0,29,0.00,,,0.00,meteohub,2013-11-15 00:52:00,
2013-11-14 18:57:00,46.4,16.0,29.48,South,180,11.0,13.0,29,0.00,,,0.00,meteohub,2013-11-15 00:57:00,
2013-11-14 19:02:00,46.4,16.0,29.48,South,180,6.0,13.0,29,0.00,,,0.00,meteohub,2013-11-15 01:02:00,
2013-11-14 19:07:00,46.4,16.0,29.48,SE,135,6.0,13.0,29,0.00,,,0.00,meteohub,2013-11-15 01:07:00,
2013-11-14 19:12:00,46.6,16.2,29.48,South,180,6.0,13.0,29,0.00,,,0.00,meteohub,2013-11-15 01:12:00,
2013-11-14 19:17:00,46.6,16.2,29.51,SSW,202,11.0,13.0,29,0.00,,,0.00,meteohub,2013-11-15 01:17:00,
2013-11-14 19:22:00,46.6,16.2,29.51,South,180,11.0,13.0,29,0.00,,,0.00,meteohub,2013-11-15 01:22:00,
2013-11-14 19:27:00,46.6,16.2,29.51,South,180,4.0,13.0,29,0.00,,,0.00,meteohub,2013-11-15 01:27:00,
2013-11-14 19:32:00,46.6,16.2,29.51,SSW,202,8.0,13.0,29,0.00,,,0.00,meteohub,2013-11-15 01:32:00,
2013-11-14 19:37:00,46.6,16.2,29.51,SSW,202,11.0,15.0,29,0.00,,,0.00,meteohub,2013-11-15 01:37:00,
2013-11-14 19:42:00,46.6,16.2,29.51,SSW,202,6.0,15.0,29,0.00,,,0.00,meteohub,2013-11-15 01:42:00,
2013-11-14 19:47:00,46.6,16.2,29.51,SE,135,6.0,15.0,29,0.00,,,0.00,meteohub,2013-11-15 01:47:00,
2013-11-14 19:52:00,46.8,16.3,29.51,SW,225,8.0,13.0,29,0.00,,,0.00,meteohub,2013-11-15 01:52:00,
2013-11-14 19:57:00,46.6,16.2,29.51,South,180,13.0,13.0,29,0.00,,,0.00,meteohub,2013-11-15 01:57:00,
2013-11-14 20:02:00,46.8,16.3,29.51,SSE,158,6.0,15.0,29,0.00,,,0.00,meteohub,2013-11-15 02:02:00,
2013-11-14 20:07:00,46.8,16.3,29.51,SSW,202,13.0,15.0,29,0.00,,,0.00,meteohub,2013-11-15 02:07:00,
2013-11-14 20:12:00,46.6,16.2,29.51,SSW,202,7.0,15.0,29,0.00,,,0.00,meteohub,2013-11-15 02:12:00,
2013-11-14 20:18:00,46.6,16.2,29.51,South,180,14.0,15.0,29,0.00,,,0.00,meteohub,2013-11-15 02:18:00,
2013-11-14 20:23:00,46.6,16.2,29.51,SSW,202,4.0,15.0,29,0.00,,,0.00,meteohub,2013-11-15 02:23:00,
2013-11-14 20:28:00,46.6,16.2,29.51,SSE,158,7.0,18.0,29,0.00,,,0.00,meteohub,2013-11-15 02:28:00,
2013-11-14 20:33:00,46.6,16.2,29.51,SW,225,8.0,18.0,29,0.00,,,0.00,meteohub,2013-11-15 02:33:00,
2013-11-14 20:38:00,46.6,16.2,29.51,South,180,8.0,18.0,29,0.00,,,0.00,meteohub,2013-11-15 02:38:00,
2013-11-14 20:43:00,46.6,16.2,29.51,South,180,8.0,13.0,29,0.00,,,0.00,meteohub,2013-11-15 02:43:00,
2013-11-14 20:48:00,46.6,16.2,29.51,South,180,6.0,13.0,29,0.00,,,0.00,meteohub,2013-11-15 02:48:00,
2013-11-14 20:53:00,46.6,16.2,29.51,SSW,202,6.0,14.0,29,0.00,,,0.00,meteohub,2013-11-15 02:53:00,
2013-11-14 20:59:00,46.6,16.2,29.51,SSW,202,8.0,14.0,29,0.00,,,0.00,meteohub,2013-11-15 02:59:00,
2013-11-14 21:04:00,46.6,16.2,29.51,SSW,202,8.0,14.0,29,0.00,,,0.00,meteohub,2013-11-15 03:04:00,
2013-11-14 21:09:00,46.6,16.2,29.51,SSW,202,5.0,14.0,29,0.00,,,0.00,meteohub,2013-11-15 03:09:00,
2013-11-14 21:14:00,46.6,16.2,29.51,SW,225,7.0,14.0,29,0.00,,,0.00,meteohub,2013-11-15 03:14:00,
2013-11-14 21:19:00,46.6,16.2,29.48,SSW,202,10.0,14.0,29,0.00,,,0.00,meteohub,2013-11-15 03:19:00,
2013-11-14 21:24:00,46.6,16.2,29.48,South,180,10.0,13.0,29,0.00,,,0.00,meteohub,2013-11-15 03:24:00,
2013-11-14 21:29:00,46.6,16.2,29.48,SSE,158,10.0,13.0,29,0.00,,,0.00,meteohub,2013-11-15 03:29:00,
2013-11-14 21:34:00,46.6,16.2,29.48,SSE,158,8.0,16.0,29,0.00,,,0.00,meteohub,2013-11-15 03:34:00,
2013-11-14 21:39:00,46.4,16.0,29.48,SSW,202,9.0,16.0,29,0.00,,,0.00,meteohub,2013-11-15 03:39:00,
2013-11-14 21:45:00,46.4,16.0,29.48,South,180,8.0,16.0,29,0.00,,,0.00,meteohub,2013-11-15 03:45:00,
2013-11-14 21:50:00,46.4,16.0,29.51,South,180,8.0,12.0,29,0.00,,,0.00,meteohub,2013-11-15 03:50:00,
2013-11-14 21:55:00,46.2,15.8,29.51,SSE,158,8.0,13.0,29,0.00,,,0.00,meteohub,2013-11-15 03:55:00,
2013-11-14 22:00:00,46.0,15.6,29.51,South,180,10.0,13.0,29,0.00,,,0.00,meteohub,2013-11-15 04:00:00,
2013-11-14 22:05:00,45.9,15.4,29.51,WSW,248,3.0,13.0,29,0.00,,,0.00,meteohub,2013-11-15 04:05:00,
2013-11-14 22:10:00,45.7,15.3,29.51,SW,225,5.0,13.0,29,0.00,,,0.00,meteohub,2013-11-15 04:10:00,
2013-11-14 22:15:00,45.5,15.1,29.51,SSW,202,3.0,13.0,29,0.00,,,0.00,meteohub,2013-11-15 04:15:00,
2013-11-14 22:20:00,45.5,15.1,29.51,SSW,202,6.0,10.0,29,0.00,,,0.00,meteohub,2013-11-15 04:20:00,
2013-11-14 22:25:00,45.3,15.1,29.51,SW,225,6.0,10.0,29,0.00,,,0.00,meteohub,2013-11-15 04:25:00,
2013-11-14 22:31:00,45.1,15.6,29.51,WSW,248,3.0,10.0,30,0.00,,,0.00,meteohub,2013-11-15 04:31:00,
2013-11-14 22:36:00,45.1,15.6,29.51,SW,225,6.0,10.0,30,0.00,,,0.00,meteohub,2013-11-15 04:36:00,
2013-11-14 22:41:00,45.1,15.6,29.51,SSW,202,4.0,10.0,30,0.00,,,0.00,meteohub,2013-11-15 04:41:00,
2013-11-14 22:46:00,45.1,15.6,29.51,SW,225,3.0,10.0,30,0.00,,,0.00,meteohub,2013-11-15 04:46:00,
2013-11-14 22:51:00,45.1,15.6,29.51,SSW,202,4.0,10.0,30,0.00,,,0.00,meteohub,2013-11-15 04:51:00,
2013-11-14 22:56:00,45.1,15.6,29.51,South,180,5.0,9.0,30,0.00,,,0.00,meteohub,2013-11-15 04:56:00,
2013-11-14 23:01:00,45.1,15.6,29.51,South,180,3.0,9.0,30,0.00,,,0.00,meteohub,2013-11-15 05:01:00,
2013-11-14 23:02:00,45.1,15.6,29.51,SSW,202,3.0,9.0,30,0.00,,,0.00,meteohub,2013-11-15 05:02:00,
2013-11-14 23:03:00,45.0,15.4,29.51,South,180,5.0,9.0,30,0.00,,,0.00,meteohub,2013-11-15 05:03:00,
2013-11-14 23:04:00,45.0,15.4,29.51,SSW,202,7.0,9.0,30,0.00,,,0.00,meteohub,2013-11-15 05:04:00,
2013-11-14 23:09:00,45.0,15.4,29.51,South,180,3.0,10.0,30,0.00,,,0.00,meteohub,2013-11-15 05:09:00,
2013-11-14 23:11:00,44.8,15.3,29.51,SW,225,6.0,10.0,30,0.00,,,0.00,meteohub,2013-11-15 05:11:00,
2013-11-14 23:16:00,44.8,15.3,29.51,South,180,8.0,10.0,30,0.00,,,0.00,meteohub,2013-11-15 05:16:00,
2013-11-14 23:21:00,44.8,15.3,29.51,South,180,3.0,10.0,30,0.00,,,0.00,meteohub,2013-11-15 05:21:00,
2013-11-14 23:27:00,44.8,15.3,29.51,South,180,5.0,10.0,30,0.00,,,0.00,meteohub,2013-11-15 05:27:00,
2013-11-14 23:32:00,44.6,15.1,29.51,WSW,248,4.0,8.0,30,0.00,,,0.00,meteohub,2013-11-15 05:32:00,
2013-11-14 23:37:00,44.6,15.1,29.51,South,180,4.0,9.0,30,0.00,,,0.00,meteohub,2013-11-15 05:37:00,
2013-11-14 23:42:00,44.6,15.1,29.51,South,180,8.0,9.0,30,0.00,,,0.00,meteohub,2013-11-15 05:42:00,
2013-11-14 23:47:00,44.6,15.1,29.48,WSW,248,4.0,9.0,30,0.00,,,0.00,meteohub,2013-11-15 05:47:00,
2013-11-14 23:52:00,44.6,15.1,29.48,South,180,6.0,10.0,30,0.00,,,0.00,meteohub,2013-11-15 05:52:00,
2013-11-14 23:57:00,44.6,15.1,29.48,SW,225,6.0,10.0,30,0.00,,,0.00,meteohub,2013-11-15 05:57:00,